sat.trackr.live / text

‹ back to catalog

SENTINEL-1A

NORAD 39634 · 2014-016A

PAYLOAD ACTIVE UNKNOWN

§ Identity

Operator
Country
ESA
Launch date
2014-04-03
Launch site
FRGUI
Launch vehicle
Mass (kg)
RCS (m²)
4.97

Purposes: earth_obs

External: N2YO · Heavens-Above · Gunter

§ Orbital elements

Epoch: 2026-09-20T04:27:48.612384Z

Period
98.64 min
Inclination
98.1601°
Eccentricity
0.0001466
Mean motion
14.59806332 rev/d
Perigee alt
692.8 km
Apogee alt
694.8 km
Semi-major
7,071.9 km
B*
2.4140e-5
RAAN
269.2310°
Arg perigee
83.2885°
Mean anomaly
276.8482°
Rev number
66,387

§ Raw data

SENTINEL-1A1 39634U 14016A   26263.18597931  .00000070  00000+0  24140-4 0  99902 39634  98.1601 269.2310 0001466  83.2885 276.8482 14.59806332663874

JSON: /api/v1/satellites/39634 · /tle

For live sub-satellite position, see the globe view (requires WebGL).

§ Visibility from observer

Set your observer location to see the next 7 days of passes ≥ 10°. The values pass through the URL so the page stays shareable.

No JS? Fill the form by hand. The geolocation button needs JavaScript.